This demonstration page uses our WeatherBlox Daily Observations layout. Learn more.

Left ArrowRight Arrow

Hourly Observations for March 17, 2020

Temp ( °F °C ) Dew Point ( °F °C ) Humidity (%) Winds ( mph kmh ) Pressure ( in mb ) Visibility ( mi km ) Precip ( " mm )
12:29 am 00:29 Cloudy 34 1 32 0 93 93 N 6 9 30.39 1029 10 16 0.00 0.00
12:56 am 00:56 Cloudy 35 1.7 32 0 89 89 N 7 11 30.35 1028 10 16 0.00 0.00
1:44 am 01:44 Cloudy 34 1 32 0 93 93 NNE 7 11 30.37 1029 9 14 0.00 0.00
1:56 am 01:56 Cloudy 34 1.1 32 0 92 92 N 8 13 30.34 1027 9 14 0.00 0.00
2:29 am 02:29 Cloudy 34 1 32 0 93 93 N 8 13 30.39 1029 9 14 0.00 0.00
2:56 am 02:56 Cloudy 34 1.1 32 0 92 92 N 7 11 30.35 1028 9 14 0.00 0.00
3:56 am 03:56 Cloudy 34 1.1 31 -0.6 89 89 N 3 6 30.34 1028 10 16 0.00 0.00
4:52 am 04:52 Cloudy 34 1 30 -1 87 87 Calm 30.37 1029 10 16 0.00 0.00
4:56 am 04:56 Cloudy 33 0.6 31 -0.6 92 92 Calm 30.32 1027 10 16 0.00 0.00
5:56 am 05:56 Cloudy 33 0.6 30 -1.1 89 89 N 3 6 30.32 1027 9 14 0.00 0.00
6:19 am 06:19 Cloudy 32 0 30 -1 93 93 Calm 30.38 1029 9 14 0.00 0.00
6:56 am 06:56 Cloudy 33 0.6 30 -1.1 89 89 Calm 30.34 1027 8 13 0.00 0.00
7:56 am 07:56 Cloudy with Mist and Fog 33 0.6 31 -0.6 92 92 E 5 7 30.32 1027 6 10 0.00 0.00
8:14 am 08:14 Cloudy with Mist and Fog 34 1 32 0 93 93 E 7 11 30.35 1028 6 10 0.00 0.00
8:56 am 08:56 Cloudy with Mist and Fog 34 1.1 32 0 92 92 ESE 12 19 30.30 1026 6 10 0.00 0.00
9:56 am 09:56 Cloudy 35 1.7 32 0 89 89 SE 9 15 30.31 1027 10 16 0.00 0.00
10:56 am 10:56 Cloudy 36 2.2 32 0 86 86 SE 10 17 30.30 1026 9 14 0.00 0.00
11:56 am 11:56 Cloudy 37 2.8 32 0 82 82 SE 10 17 30.27 1025 10 16 0.00 0.00
12:56 pm 12:56 Cloudy 38 3.3 32 0 79 79 SSE 15 24 30.24 1024 10 16 0.00 0.00
1:56 pm 13:56 Cloudy 38 3.3 33 0.6 83 83 SSE 14 22 30.22 1023 10 16 0.00 0.00
2:56 pm 14:56 Cloudy 40 4.4 34 1.1 79 79 SSE 15 24 30.16 1022 10 16 0.00 0.00
3:34 pm 15:34 Cloudy 39 4 34 1 81 81 S 15 24 30.17 1022 10 16 0.00 0.00
3:56 pm 15:56 Cloudy 38 3.3 34 1.1 86 86 S 14 22 30.14 1021 10 16 0.00 0.00
4:03 pm 16:03 Cloudy 37 3 34 1 87 87 SSE 13 20 30.16 1021 10 16 0.00 0.00
4:17 pm 16:17 Cloudy 39 4 34 1 81 81 S 10 17 30.15 1021 10 16 0.00 0.00
4:29 pm 16:29 Cloudy 37 3 36 2 93 93 S 13 20 30.15 1021 10 16 0.00 0.00
4:56 pm 16:56 Cloudy with Light Rain 38 3.3 35 1.7 89 89 S 12 19 30.12 1020 10 16 0.00 0.00
5:54 pm 17:54 Cloudy 37 3 36 2 93 93 SSE 12 19 30.11 1020 10 16 0.00 0.00
5:56 pm 17:56 Cloudy 38 3.3 36 2.2 93 93 SSE 13 20 30.09 1019 10 16 0.00 0.00
6:56 pm 18:56 Cloudy with Light Rain 38 3.3 36 2.2 93 93 SSE 12 19 30.08 1019 10 16 0.00 0.00
7:24 pm 19:24 Cloudy with Light Rain 37 3 37 3 100 100 SSE 9 15 30.09 1019 5 8 0.00 0.00
7:56 pm 19:56 Cloudy 38 3.3 37 2.8 97 97 S 10 17 30.06 1018 9 14 0.00 0.00
8:56 pm 20:56 Cloudy with Light Rain 39 3.9 37 2.8 93 93 SSE 8 13 30.05 1018 5 8 0.00 0.00
9:56 pm 21:56 Cloudy with Mist and Fog 39 3.9 38 3.3 96 96 SSE 7 11 30.04 1017 6 10 0.00 0.00
10:56 pm 22:56 Cloudy with Mist and Fog 39 3.9 38 3.3 96 96 SE 8 13 30.02 1017 4 6 0.00 0.00
11:03 pm 23:03 Cloudy with Mist and Fog 39 4 37 3 93 93 SSE 9 15 30.05 1017 3 5 0.00 0.00
11:52 pm 23:52 Cloudy with Mist and Fog 39 4 39 4 100 100 SSE 10 17 30.03 1017 3 4 0.00 0.00
11:56 pm 23:56 Cloudy with Mist and Fog 40 4.4 39 3.9 97 97 SSE 10 17 30.00 1016 3 4 0.00 0.00

Powered by AerisWeather